Regional Weather Roundup
Issued by NWS

Home | Current Version | Previous Version | Text Only | Print | Product List | Glossary Off
Versions: 1 2 3 4 5 6 7 8 9 10 11 12 13 14 15 16 17 18 19 20 21 22 23 24 25 26 27 28 29 30 31 32 33 34 35 36 37 38 39 40 41 42 43 44 45 46 47 48 49 50

000
ASUS43 KFSD 231102
RWRSD

WEATHER ROUNDUP FOR SOUTH DAKOTA
NATIONAL WEATHER SERVICE SIOUX FALLS SD
500 AM CST TUE JAN 23 2018

NOTE: "FAIR" INDICATES FEW OR NO CLOUDS BELOW 12,000 FEET WITH NO
SIGNIFICANT WEATHER AND/OR OBSTRUCTIONS TO VISIBILITY.


SDZ001>005-009-010-012>017-231200-
NORTHWEST AND NORTH CENTRAL SOUTH DAKOTA

CITY           SKY/WX    TMP DP  RH WIND       PRES   REMARKS
BUFFALO          N/A     28  21  75 W12       29.97S WCI  18
FAITH            N/A     29  23  78 W14       30.03R WCI  18
MOBRIDGE       FOG       20  17  88 S6        30.01S VSB 1/2 WCI  12
$$

SDZ012>016-024>037-041>051-057-063-072>074-231200-
SOUTHWEST AND SOUTH CENTRAL SOUTH DAKOTA

CITY           SKY/WX    TMP DP  RH WIND       PRES   REMARKS
RAPID CTY ARPT CLOUDY    30  25  81 SW3       30.07S
PIERRE         FOG       20  19  96 SW5       30.06R VSB 1/2 WCI  13
CUSTER         MOCLDY    24  15  68 CALM      30.01F
ELLSWORTH AFB  CLOUDY    30  28  90 SW7       30.05F WCI  23
PHILIP         CLOUDY    28  26  92 W7        30.06S WCI  21
PINE RIDGE     CLOUDY    22  19  89 CALM      30.10F
SPEARFISH        N/A     32  23  69 W9        30.06S WCI  24
WINNER         FRZ RAIN  14  10  84 W7        30.06S WCI   4
$$

SDZ004>011-016>023-039-040-231200-
NORTHEAST SOUTH DAKOTA

CITY           SKY/WX    TMP DP  RH WIND       PRES   REMARKS
ABERDEEN       CLOUDY    19  19 100 NW7       30.07F FOG     WCI  10
WATERTOWN      CLOUDY    19  18  95 N13       30.02R WCI   6
BROOKINGS      CLOUDY    20  17  88 NW15      30.02S WCI   6
SISSETON         N/A     22  19  89 NW12      30.05R WCI  10
$$

SDZ017-020-022-023-036>040-048>070-231200-
SOUTHEAST SOUTH DAKOTA

CITY           SKY/WX    TMP DP  RH WIND       PRES   REMARKS
SIOUX FALLS    CLOUDY    22  20  92 N15       30.03R WCI   9
HURON          CLOUDY    20  19  96 NW13      30.08S FOG     WCI   7
CHAMBERLAIN    FOG       22  22 100 W7        30.07S VSB 1/2 WCI  14
MITCHELL       CLOUDY    21  20  96 NW10      30.09S WCI  10
YANKTON        LGT SNOW  20  18  92 NW22      30.07R FOG     WCI   3
$$

ABBREVIATIONS USED IN REMARKS
   TC - TEMPERATURE IN CELSIUS
  WCI - WIND CHILL INDEX
   HX - HEAT INDEX
  VSB - VISIBILITY




USA.gov is the U.S. government's official web portal to all federal, state and local government web resources and services.